sat.trackr.live / text

‹ back to catalog

STARLINK-3582

NORAD 51873 · 2022-022X

PAYLOAD ACTIVE UNKNOWN

§ Identity

Operator
Country
US
Launch date
2022-03-03
Launch site
AFETR
Launch vehicle
Mass (kg)
RCS (m²)

Purposes: comms

External: N2YO · Heavens-Above · Gunter

§ Orbital elements

Epoch: 2026-09-20T02:24:02.255904Z

Period
94.30 min
Inclination
53.1992°
Eccentricity
0.0006433
Mean motion
15.27045859 rev/d
Perigee alt
480.2 km
Apogee alt
489.1 km
Semi-major
6,862.8 km
B*
9.3527e-4
RAAN
194.0175°
Arg perigee
105.7212°
Mean anomaly
254.4498°
Rev number
25,278

§ Raw data

STARLINK-35821 51873U 22022X   26263.10002611  .00024896  00000+0  93527-3 0  99992 51873  53.1992 194.0175 0006433 105.7212 254.4498 15.27045859252782

JSON: /api/v1/satellites/51873 · /tle

For live sub-satellite position, see the globe view (requires WebGL).

§ Visibility from observer

Set your observer location to see the next 7 days of passes ≥ 10°. The values pass through the URL so the page stays shareable.

No JS? Fill the form by hand. The geolocation button needs JavaScript.